TimeMST,TemperatureF,Dew PointF,Humidity,Sea Level PressureIn,VisibilityMPH,Wind Direction,Wind SpeedMPH,Gust SpeedMPH,PrecipitationIn,Events,Conditions,WindDirDegrees,DateUTC
12:16 AM,35.1,7.5,32,29.94,10.0,Calm,Calm,-,N/A,,Clear,0,2013-02-17 07:16:00
12:36 AM,38.8,6.1,26,29.93,10.0,West,18.4,24.2,N/A,,Clear,260,2013-02-17 07:36:00
12:56 AM,45.7,4.1,18,29.92,10.0,West,17.3,21.9,N/A,,Clear,260,2013-02-17 07:56:00
1:16 AM,45.7,4.5,18,29.92,10.0,WSW,21.9,-,N/A,,Clear,250,2013-02-17 08:16:00
1:36 AM,45.5,3.7,18,29.92,10.0,WSW,17.3,23.0,N/A,,Clear,250,2013-02-17 08:36:00
1:56 AM,45.5,3.4,18,29.92,10.0,WSW,9.2,-,N/A,,Clear,250,2013-02-17 08:56:00
2:16 AM,45.5,3.2,18,29.91,10.0,WSW,11.5,17.3,N/A,,Clear,240,2013-02-17 09:16:00
2:36 AM,44.1,3.4,19,29.90,10.0,WSW,12.7,-,N/A,,Clear,240,2013-02-17 09:36:00
2:56 AM,44.6,2.7,18,29.88,10.0,SW,9.2,-,N/A,,Clear,230,2013-02-17 09:56:00
3:16 AM,46.4,0.5,15,29.87,10.0,SW,16.1,21.9,N/A,,Clear,230,2013-02-17 10:16:00
3:36 AM,45.3,0.9,16,29.86,10.0,WSW,10.4,-,N/A,,Clear,240,2013-02-17 10:36:00
3:56 AM,46.6,-0.4,14,29.86,10.0,WSW,8.1,-,N/A,,Clear,240,2013-02-17 10:56:00
4:16 AM,43.2,1.0,17,29.85,10.0,WSW,4.6,-,N/A,,Clear,250,2013-02-17 11:16:00
4:36 AM,45.0,-1.8,14,29.84,10.0,SW,17.3,-,N/A,,Clear,230,2013-02-17 11:36:00
4:56 AM,44.8,-2.4,14,29.84,10.0,SW,13.8,-,N/A,,Clear,220,2013-02-17 11:56:00
5:16 AM,43.5,-2.6,15,29.84,10.0,SW,10.4,-,N/A,,Clear,220,2013-02-17 12:16:00
5:36 AM,42.8,-3.3,14,29.83,10.0,SSW,3.5,-,N/A,,Clear,210,2013-02-17 12:36:00
5:56 AM,41.0,-0.8,17,29.81,10.0,South,12.7,17.3,N/A,,Clear,190,2013-02-17 12:56:00
6:16 AM,41.7,-2.4,16,29.80,10.0,SSW,10.4,17.3,N/A,,Clear,200,2013-02-17 13:16:00
6:36 AM,41.2,-3.6,15,29.79,10.0,SW,6.9,-,N/A,,Clear,220,2013-02-17 13:36:00
7:16 AM,36.1,3.2,25,29.78,10.0,SSW,13.8,17.3,N/A,,Clear,200,2013-02-17 14:16:00
7:36 AM,37.2,3.0,24,29.77,10.0,SSW,11.5,20.7,N/A,,Clear,200,2013-02-17 14:36:00
7:56 AM,43.0,-1.8,15,29.76,10.0,WSW,9.2,21.9,N/A,,Clear,240,2013-02-17 14:56:00
8:16 AM,42.6,-0.2,17,29.75,10.0,South,9.2,18.4,N/A,,Clear,180,2013-02-17 15:16:00
8:36 AM,43.5,-0.4,16,29.75,10.0,South,12.7,17.3,N/A,,Clear,170,2013-02-17 15:36:00
8:56 AM,44.1,-0.4,16,29.73,10.0,SSE,12.7,26.5,N/A,,Clear,160,2013-02-17 15:56:00
9:16 AM,44.1,1.0,17,29.73,10.0,South,9.2,16.1,N/A,,Clear,190,2013-02-17 16:16:00
9:36 AM,47.3,-0.0,14,29.72,10.0,South,6.9,19.6,N/A,,Clear,180,2013-02-17 16:36:00
9:56 AM,50.7,-0.6,12,29.71,10.0,SSW,13.8,18.4,N/A,,Clear,210,2013-02-17 16:56:00
10:16 AM,51.6,-1.3,11,29.71,10.0,SSE,11.5,18.4,N/A,,Clear,150,2013-02-17 17:16:00
10:36 AM,55.4,-2.6,9,29.69,10.0,SE,8.1,-,N/A,,Clear,140,2013-02-17 17:36:00
10:56 AM,57.0,-4.4,8,29.68,10.0,SE,16.1,20.7,N/A,,Clear,140,2013-02-17 17:56:00
11:16 AM,58.6,-6.2,7,29.67,10.0,South,4.6,-,N/A,,Clear,180,2013-02-17 18:16:00
11:36 AM,59.7,-6.7,7,29.66,10.0,Calm,Calm,-,N/A,,Clear,0,2013-02-17 18:36:00
11:56 AM,62.2,-8.3,6,29.64,10.0,West,18.4,27.6,N/A,,Clear,260,2013-02-17 18:56:00
12:16 PM,61.9,-9.2,5,29.63,10.0,West,16.1,26.5,N/A,,Clear,270,2013-02-17 19:16:00
12:36 PM,62.2,-7.8,6,29.61,10.0,West,12.7,19.6,N/A,,Clear,270,2013-02-17 19:36:00
12:56 PM,62.2,-7.6,6,29.60,10.0,West,21.9,31.1,N/A,,Clear,270,2013-02-17 19:56:00
1:16 PM,62.6,-8.3,6,29.59,10.0,West,20.7,32.2,N/A,,Clear,280,2013-02-17 20:16:00
1:36 PM,62.1,-7.6,6,29.57,10.0,West,21.9,34.5,N/A,,Clear,280,2013-02-17 20:36:00
1:56 PM,62.2,-7.4,6,29.56,10.0,West,17.3,38.0,N/A,,Clear,280,2013-02-17 20:56:00
2:16 PM,62.2,-6.2,6,29.55,10.0,West,23.0,32.2,N/A,,Clear,280,2013-02-17 21:16:00
2:36 PM,63.0,-5.8,6,29.54,10.0,WNW,21.9,27.6,N/A,,Clear,290,2013-02-17 21:36:00
2:56 PM,62.8,-5.3,6,29.54,10.0,WNW,23.0,31.1,N/A,,Clear,300,2013-02-17 21:56:00
3:16 PM,61.5,-6.3,6,29.54,10.0,WNW,23.0,32.2,N/A,,Clear,300,2013-02-17 22:16:00
3:36 PM,60.6,-7.8,6,29.54,10.0,WNW,24.2,32.2,N/A,,Clear,290,2013-02-17 22:36:00
3:56 PM,59.9,-6.2,7,29.54,10.0,NW,19.6,29.9,N/A,,Clear,310,2013-02-17 22:56:00
4:16 PM,59.0,-6.5,7,29.54,10.0,WNW,18.4,27.6,N/A,,Clear,300,2013-02-17 23:16:00
4:36 PM,57.6,-4.2,8,29.54,10.0,WNW,15.0,25.3,N/A,,Clear,300,2013-02-17 23:36:00
4:56 PM,55.9,-3.3,9,29.54,10.0,WNW,16.1,26.5,N/A,,Clear,300,2013-02-17 23:56:00
5:16 PM,54.0,-2.0,10,29.55,10.0,West,21.9,26.5,N/A,,Clear,280,2013-02-18 00:16:00
5:36 PM,52.2,-1.5,11,29.55,10.0,West,21.9,27.6,N/A,,Clear,280,2013-02-18 00:36:00
5:56 PM,51.4,-1.1,12,29.56,10.0,West,18.4,26.5,N/A,,Clear,280,2013-02-18 00:56:00
6:16 PM,46.6,-1.5,14,29.57,10.0,WNW,8.1,-,N/A,,Clear,300,2013-02-18 01:16:00
6:36 PM,47.5,0.7,15,29.56,10.0,WNW,16.1,21.9,N/A,,Clear,290,2013-02-18 01:36:00
6:56 PM,49.6,2.3,14,29.56,10.0,WNW,21.9,29.9,N/A,,Clear,290,2013-02-18 01:56:00
7:16 PM,49.1,3.0,15,29.57,10.0,WNW,24.2,33.4,N/A,,Clear,290,2013-02-18 02:16:00
7:36 PM,46.8,4.1,17,29.58,10.0,WNW,17.3,24.2,N/A,,Clear,290,2013-02-18 02:36:00
7:56 PM,46.8,4.8,18,29.59,10.0,WNW,18.4,24.2,N/A,,Clear,300,2013-02-18 02:56:00
8:16 PM,42.8,11.3,28,29.62,10.0,NNE,6.9,17.3,N/A,,Clear,30,2013-02-18 03:16:00
8:36 PM,40.3,13.8,34,29.64,10.0,ENE,18.4,26.5,N/A,,Clear,60,2013-02-18 03:36:00
8:56 PM,37.9,16.3,42,29.65,10.0,NE,17.3,28.8,N/A,,Clear,50,2013-02-18 03:56:00
9:16 PM,36.9,16.3,43,29.66,10.0,NE,17.3,24.2,N/A,,Scattered Clouds,40,2013-02-18 04:16:00
9:36 PM,35.2,15.4,44,29.68,10.0,NE,11.5,-,N/A,,Clear,50,2013-02-18 04:36:00
9:56 PM,35.4,14.7,43,29.70,10.0,Calm,Calm,-,N/A,,Clear,0,2013-02-18 04:56:00
10:16 PM,34.0,12.9,42,29.70,10.0,ENE,13.8,18.4,N/A,,Clear,70,2013-02-18 05:16:00
10:36 PM,35.1,10.2,36,29.71,10.0,North,15.0,18.4,N/A,,Clear,360,2013-02-18 05:36:00
10:56 PM,35.1,8.8,34,29.72,10.0,NE,8.1,18.4,N/A,,Mostly Cloudy,50,2013-02-18 05:56:00
11:16 PM,34.7,7.7,32,29.73,10.0,North,11.5,-,N/A,,Scattered Clouds,10,2013-02-18 06:16:00
11:36 PM,34.9,7.5,32,29.74,10.0,ENE,6.9,-,N/A,,Mostly Cloudy,70,2013-02-18 06:36:00
11:56 PM,33.1,14.7,47,29.75,10.0,East,9.2,-,N/A,,Overcast,80,2013-02-18 06:56:00